Weather History for KL38 - September, 2012

Change the Weather History Date:

Tuesday, September 18, 2012

  Actual Average (KBTR) Record (KBTR)
Temperature  
Mean Temperature 76 °F 78 °F  
Max Temperature 83 °F 88 °F 98 °F (1927)
Min Temperature 70 °F 68 °F 50 °F (1903)
Degree Days  
Heating Degree Days 0 0  
Month to date heating degree days 0  
Since 1 July heating degree days 0  
Cooling Degree Days 12 13  
Month to date cooling degree days 274  
Year to date cooling degree days 2435  
Growing Degree Days 26 (Base 50)    
Moisture  
Dew Point 69 °F    
Average Humidity 82    
Maximum Humidity 99    
Minimum Humidity 54    
Precipitation  
Precipitation 0.00 in 0.14 in 1.74 in (2009)
Month to date precipitation 2.84  
Year to date precipitation 44.55  
Snow  
Snow - - - ()
Month to date snowfall  
Since 1 July snowfall  
Since 1 September snowfall  
Snow Depth -    
Sea Level Pressure  
Sea Level Pressure 29.87 in    
Wind  
Wind Speed 4 mph ()    
Max Wind Speed 15 mph    
Max Gust Speed 17 mph    
Visibility 10.0 miles    
Events      
T = Trace of Precipitation, MM = Missing Value Source: Averaged Metar Reports

Daily Weather History Graph

Daily Weather History Graph

Search for Another Location

Airport or City:

Trip Planner

Search our weather history database for the weather conditions in past years. The results will help you decide how hot, cold, wet, or windy it might be!

Date:

Astronomy

Sep. 18, 2012 Rise Set
Actual Time 6:50 AM CDT 7:04 PM CDT
Civil Twilight 6:26 AM CDT 7:28 PM CDT
Nautical Twilight 5:58 AM CDT 7:56 PM CDT
Astronomical Twilight 5:29 AM CDT 8:24 PM CDT
Moon 9:32 AM CDT (9/18) 8:47 PM CDT (9/18)
Length of Visible Light 13h 02m
Length of Day
12h 14m
Waxing Crescent, 9% of the Moon is Illuminated
Sep 18
Waxing Crescent
Sep 22
First Quarter
Sep 29
Full
Oct 8
Last Quarter
Oct 15
New

Hourly Weather History & Observations

Time (CDT) Temp. Heat Index Dew Point Humidity Pressure Visibility Wind Dir Wind Speed Gust Speed Precip Events Conditions
12:15 AM 71.6 °F - 70.7 °F 97% 29.78 in 10.0 mi Calm Calm - N/A   Clear
12:35 AM 71.2 °F - 70.3 °F 97% 29.77 in 10.0 mi Calm Calm - N/A   Clear
12:55 AM 71.1 °F - 70.3 °F 98% 29.77 in 10.0 mi Calm Calm - N/A   Scattered Clouds
1:15 AM 71.4 °F - 70.7 °F 98% 29.78 in 10.0 mi Calm Calm - N/A   Mostly Cloudy
1:35 AM 71.6 °F - 70.7 °F 97% 29.78 in 10.0 mi Calm Calm - N/A   Overcast
1:55 AM 71.6 °F - 70.7 °F 97% 29.78 in 10.0 mi SW 3.5 mph - N/A   Overcast
2:35 AM 71.1 °F - 70.5 °F 98% 29.78 in 10.0 mi SW 3.5 mph - N/A   Overcast
3:15 AM 71.1 °F - 70.3 °F 98% 29.78 in 10.0 mi WSW 3.5 mph - N/A   Scattered Clouds
3:35 AM 71.1 °F - 70.7 °F 99% 29.78 in 10.0 mi WSW 4.6 mph - N/A   Overcast
3:55 AM 71.6 °F - 70.7 °F 97% 29.78 in 10.0 mi WSW 3.5 mph - N/A   Overcast
4:15 AM 71.6 °F - 70.7 °F 97% 29.78 in 10.0 mi WSW 4.6 mph - N/A   Overcast
4:35 AM 71.6 °F - 70.7 °F 97% 29.78 in 10.0 mi SW 3.5 mph - N/A   Overcast
4:55 AM 71.6 °F - 70.3 °F 96% 29.78 in 10.0 mi WSW 4.6 mph - N/A   Overcast
5:15 AM 71.2 °F - 70.0 °F 96% 29.78 in 10.0 mi WSW 6.9 mph - N/A   Overcast
5:35 AM 71.2 °F - 70.2 °F 96% 29.79 in 10.0 mi WSW 5.8 mph - N/A   Overcast
5:55 AM 71.1 °F - 70.0 °F 96% 29.80 in 10.0 mi WSW 8.1 mph - N/A   Overcast
6:15 AM 71.1 °F - 69.8 °F 96% 29.80 in 10.0 mi West 6.9 mph - N/A   Overcast
6:35 AM 71.2 °F - 69.8 °F 95% 29.81 in 10.0 mi West 5.8 mph - N/A   Overcast
6:55 AM 71.6 °F - 69.8 °F 94% 29.82 in 10.0 mi West 4.6 mph - N/A   Overcast
7:15 AM 72.0 °F - 69.8 °F 93% 29.83 in 10.0 mi WNW 8.1 mph - N/A   Overcast
7:35 AM 72.1 °F - 69.4 °F 91% 29.84 in 10.0 mi WNW 6.9 mph - N/A   Overcast
7:55 AM 71.8 °F - 69.8 °F 93% 29.85 in 10.0 mi NW 4.6 mph - N/A   Overcast
8:15 AM 71.6 °F - 69.8 °F 94% 29.86 in 10.0 mi WNW 4.6 mph - N/A   Light Drizzle
8:35 AM 72.5 °F - 70.5 °F 93% 29.87 in 10.0 mi NW 4.6 mph - N/A   Overcast
8:55 AM 72.9 °F - 70.5 °F 92% 29.87 in 10.0 mi NW 5.8 mph - N/A   Overcast
9:15 AM 73.2 °F - 70.5 °F 91% 29.87 in 10.0 mi NW 5.8 mph - N/A   Overcast
9:35 AM 74.3 °F - 70.3 °F 87% 29.88 in 10.0 mi WNW 6.9 mph - N/A   Overcast
9:55 AM 75.6 °F - 70.7 °F 85% 29.89 in 10.0 mi NNW 8.1 mph - N/A   Overcast
10:15 AM 75.4 °F - 70.0 °F 83% 29.90 in 10.0 mi WNW 6.9 mph - N/A   Overcast
10:35 AM 76.1 °F - 69.4 °F 80% 29.90 in 10.0 mi NW 8.1 mph - N/A   Overcast
10:55 AM 75.7 °F - 69.8 °F 82% 29.90 in 10.0 mi WNW 5.8 mph - N/A   Overcast
11:15 AM 77.2 °F - 69.8 °F 78% 29.90 in 10.0 mi NNW 10.4 mph - N/A   Mostly Cloudy
11:35 AM 77.4 °F - 69.6 °F 77% 29.90 in 10.0 mi NW 6.9 mph - N/A   Mostly Cloudy
11:55 AM 77.7 °F - 69.6 °F 76% 29.90 in 10.0 mi NNW 11.5 mph 17.3 mph N/A   Mostly Cloudy
12:15 PM 77.9 °F - 69.1 °F 74% 29.91 in 10.0 mi NNW 15.0 mph - N/A   Overcast
12:35 PM 75.9 °F - 69.8 °F 81% 29.91 in 10.0 mi NW 8.1 mph - N/A   Overcast
12:55 PM 79.2 °F - 69.8 °F 73% 29.92 in 10.0 mi NW 9.2 mph - N/A   Scattered Clouds
1:15 PM 80.2 °F 83.0 °F 68.5 °F 67% 29.91 in 10.0 mi NW 11.5 mph - N/A   Scattered Clouds
1:55 PM 80.6 °F 83.5 °F 68.5 °F 67% 29.91 in 10.0 mi NNW 4.6 mph - N/A   Scattered Clouds
2:15 PM 81.1 °F 83.9 °F 67.8 °F 64% 29.91 in 10.0 mi NW 8.1 mph - N/A   Clear
2:35 PM 81.9 °F 84.6 °F 67.6 °F 62% 29.90 in 10.0 mi NNW 8.1 mph - N/A   Scattered Clouds
2:55 PM 82.2 °F 84.4 °F 66.2 °F 58% 29.90 in 10.0 mi NNW 10.4 mph 16.1 mph N/A   Scattered Clouds
3:15 PM 82.4 °F 84.6 °F 66.4 °F 58% 29.90 in 10.0 mi North 9.2 mph - N/A   Clear
3:35 PM 82.0 °F 84.5 °F 66.7 °F 60% 29.89 in 10.0 mi North 8.1 mph - N/A   Mostly Cloudy
3:55 PM 83.3 °F 86.2 °F 67.5 °F 59% 29.89 in 10.0 mi NNW 5.8 mph - N/A   Scattered Clouds
4:15 PM 83.1 °F 85.7 °F 67.1 °F 58% 29.89 in 10.0 mi North 5.8 mph - N/A   Clear
4:35 PM 83.5 °F 85.7 °F 66.4 °F 56% 29.89 in 10.0 mi North 8.1 mph - N/A   Scattered Clouds
4:55 PM 83.3 °F 85.1 °F 65.3 °F 54% 29.90 in 10.0 mi North 10.4 mph - N/A   Scattered Clouds
5:15 PM 82.8 °F 85.1 °F 66.4 °F 58% 29.89 in 10.0 mi NNW 9.2 mph - N/A   Clear
5:35 PM 82.0 °F 84.5 °F 66.7 °F 60% 29.89 in 10.0 mi NNW 8.1 mph - N/A   Clear
5:55 PM 81.7 °F 84.0 °F 66.4 °F 60% 29.89 in 10.0 mi North 5.8 mph - N/A   Clear
6:15 PM 80.8 °F 83.2 °F 66.9 °F 63% 29.90 in 10.0 mi North 5.8 mph - N/A   Clear
6:35 PM 79.7 °F - 66.9 °F 65% 29.90 in 10.0 mi NNW 5.8 mph - N/A   Clear
6:55 PM 78.4 °F - 66.6 °F 67% 29.90 in 10.0 mi North 4.6 mph - N/A   Clear
7:15 PM 76.5 °F - 67.6 °F 74% 29.90 in 10.0 mi NNW 3.5 mph - N/A   Clear
7:35 PM 75.2 °F - 67.8 °F 78% 29.91 in 10.0 mi NNW 3.5 mph - N/A   Clear
7:55 PM 76.1 °F - 67.1 °F 74% 29.92 in 10.0 mi North 6.9 mph - N/A   Clear
8:15 PM 75.4 °F - 67.3 °F 76% 29.93 in 10.0 mi NNW 4.6 mph - N/A   Clear
8:35 PM 74.3 °F - 68.0 °F 81% 29.94 in 10.0 mi North 3.5 mph - N/A   Clear
8:55 PM 73.4 °F - 68.2 °F 84% 29.95 in 10.0 mi Calm Calm - N/A   Clear
9:15 PM 72.9 °F - 68.4 °F 86% 29.96 in 10.0 mi Calm Calm - N/A   Clear
9:35 PM 71.6 °F - 68.9 °F 91% 29.98 in 10.0 mi Calm Calm - N/A   Clear
9:55 PM 71.6 °F - 68.5 °F 90% 29.99 in 10.0 mi Calm Calm - N/A   Clear
10:15 PM 72.3 °F - 68.0 °F 86% 30.00 in 10.0 mi North 3.5 mph - N/A   Clear
10:55 PM 72.1 °F - 67.5 °F 85% 30.01 in 10.0 mi North 4.6 mph - N/A   Clear
11:35 PM 70.9 °F - 67.1 °F 88% 30.01 in 10.0 mi North 4.6 mph - N/A   Clear
11:55 PM 70.7 °F - 66.7 °F 87% 30.01 in 10.0 mi North 4.6 mph - N/A   Clear